Year,Month,Day,Hour,Minute,Value (Times are PST for temperature in C)
2017,06,26,00,00,19.90
2017,06,26,00,01,19.90
2017,06,26,00,02,19.90
2017,06,26,00,03,19.90
2017,06,26,00,04,19.90
2017,06,26,00,05,19.90
2017,06,26,00,06,19.90
2017,06,26,00,07,19.90
2017,06,26,00,08,19.90
2017,06,26,00,09,19.90
2017,06,26,00,10,19.80
2017,06,26,00,11,19.80
2017,06,26,00,12,19.80
2017,06,26,00,13,19.80
2017,06,26,00,14,19.70
2017,06,26,00,15,19.70
2017,06,26,00,16,19.70
2017,06,26,00,17,19.70
2017,06,26,00,18,19.70
2017,06,26,00,19,19.80
2017,06,26,00,20,19.80
2017,06,26,00,21,19.80
2017,06,26,00,22,19.90
2017,06,26,00,23,19.90
2017,06,26,00,24,20.00
2017,06,26,00,25,20.20
2017,06,26,00,26,20.20
2017,06,26,00,27,20.20
2017,06,26,00,28,20.30
2017,06,26,00,29,20.40
2017,06,26,00,30,20.50
2017,06,26,00,31,20.50
2017,06,26,00,32,20.60
2017,06,26,00,33,20.70
2017,06,26,00,34,20.70
2017,06,26,00,35,20.80
2017,06,26,00,36,20.80
2017,06,26,00,37,20.90
2017,06,26,00,38,21.00
2017,06,26,00,39,21.00
2017,06,26,00,40,21.10
2017,06,26,00,41,21.10
2017,06,26,00,42,21.20
2017,06,26,00,43,21.20
2017,06,26,00,44,21.20
2017,06,26,00,45,21.30
2017,06,26,00,46,21.30
2017,06,26,00,47,21.30
2017,06,26,00,48,21.30
2017,06,26,00,49,21.30
2017,06,26,00,50,21.30
2017,06,26,00,51,21.30
2017,06,26,00,52,21.30
2017,06,26,00,53,21.30
2017,06,26,00,54,21.30
2017,06,26,00,55,21.30
2017,06,26,00,56,21.30
2017,06,26,00,57,21.30
2017,06,26,00,58,21.30
2017,06,26,00,59,21.30
2017,06,26,01,00,21.30
2017,06,26,01,01,21.30
2017,06,26,01,02,21.30
2017,06,26,01,03,21.30
2017,06,26,01,04,21.20
2017,06,26,01,05,21.20
2017,06,26,01,06,21.20
2017,06,26,01,07,21.20
2017,06,26,01,08,21.20
2017,06,26,01,09,21.20
2017,06,26,01,10,21.10
2017,06,26,01,11,21.10
2017,06,26,01,12,21.10
2017,06,26,01,13,21.00
2017,06,26,01,14,21.00
2017,06,26,01,15,21.00
2017,06,26,01,16,20.80
2017,06,26,01,17,20.80
2017,06,26,01,18,20.70
2017,06,26,01,19,20.70
2017,06,26,01,20,20.60
2017,06,26,01,21,20.60
2017,06,26,01,22,20.60
2017,06,26,01,23,20.60
2017,06,26,01,24,20.70
2017,06,26,01,25,20.70
2017,06,26,01,26,20.70
2017,06,26,01,27,20.70
2017,06,26,01,28,20.60
2017,06,26,01,29,20.60
2017,06,26,01,30,20.60
2017,06,26,01,31,20.60
2017,06,26,01,32,20.50
2017,06,26,01,33,20.50
2017,06,26,01,34,20.50
2017,06,26,01,35,20.50
2017,06,26,01,36,20.50
2017,06,26,01,37,20.50
2017,06,26,01,38,20.60
2017,06,26,01,39,20.60
2017,06,26,01,40,20.60
2017,06,26,01,41,20.60
2017,06,26,01,42,20.60
2017,06,26,01,43,20.70
2017,06,26,01,44,20.70
2017,06,26,01,45,20.80
2017,06,26,01,46,20.80
2017,06,26,01,47,20.90
2017,06,26,01,48,20.90
2017,06,26,01,49,20.90
2017,06,26,01,50,21.00
2017,06,26,01,51,21.00
2017,06,26,01,52,21.10
2017,06,26,01,53,21.10
2017,06,26,01,54,21.20
2017,06,26,01,55,21.30
2017,06,26,01,56,21.30
2017,06,26,01,57,21.30
2017,06,26,01,58,21.30
2017,06,26,01,59,21.30
2017,06,26,02,00,21.30
2017,06,26,02,01,21.30
2017,06,26,02,02,21.30
2017,06,26,02,03,21.30
2017,06,26,02,04,21.40
2017,06,26,02,05,21.40
2017,06,26,02,06,21.40
2017,06,26,02,07,21.50
2017,06,26,02,08,21.60
2017,06,26,02,09,21.60
2017,06,26,02,10,21.60
2017,06,26,02,11,21.60
2017,06,26,02,12,21.60
2017,06,26,02,13,21.70
2017,06,26,02,14,21.70
2017,06,26,02,15,21.80
2017,06,26,02,16,21.90
2017,06,26,02,17,22.00
2017,06,26,02,18,22.00
2017,06,26,02,19,22.00
2017,06,26,02,20,22.10
2017,06,26,02,21,22.10
2017,06,26,02,22,22.10
2017,06,26,02,23,22.10
2017,06,26,02,24,22.20
2017,06,26,02,25,22.20
2017,06,26,02,26,22.20
2017,06,26,02,27,22.20
2017,06,26,02,28,22.20
2017,06,26,02,29,22.30
2017,06,26,02,30,22.30
2017,06,26,02,31,22.30
2017,06,26,02,32,22.30
2017,06,26,02,33,22.30
2017,06,26,02,34,22.30
2017,06,26,02,35,22.30
2017,06,26,02,36,22.30
2017,06,26,02,37,22.30
2017,06,26,02,38,22.30
2017,06,26,02,39,22.30
2017,06,26,02,40,22.30
2017,06,26,02,41,22.30
2017,06,26,02,42,22.30
2017,06,26,02,43,22.30
2017,06,26,02,44,22.30
2017,06,26,02,45,22.30
2017,06,26,02,46,22.30
2017,06,26,02,47,22.30
2017,06,26,02,48,22.40
2017,06,26,02,49,22.40
2017,06,26,02,50,22.40
2017,06,26,02,51,22.40
2017,06,26,02,52,22.40
2017,06,26,02,53,22.40
2017,06,26,02,54,22.40
2017,06,26,02,55,22.40
2017,06,26,02,56,22.40
2017,06,26,02,57,22.40
2017,06,26,02,58,22.50
2017,06,26,02,59,22.50
2017,06,26,03,00,22.60
2017,06,26,03,01,22.60
2017,06,26,03,02,22.60
2017,06,26,03,03,22.70
2017,06,26,03,04,22.70
2017,06,26,03,05,22.70
2017,06,26,03,06,22.70
2017,06,26,03,07,22.70
2017,06,26,03,08,22.70
2017,06,26,03,09,22.70
2017,06,26,03,10,22.70
2017,06,26,03,11,22.60
2017,06,26,03,12,22.60
2017,06,26,03,13,22.60
2017,06,26,03,14,22.60
2017,06,26,03,15,22.60
2017,06,26,03,16,22.60
2017,06,26,03,17,22.60
2017,06,26,03,18,22.60
2017,06,26,03,19,22.50
2017,06,26,03,20,22.50
2017,06,26,03,21,22.40
2017,06,26,03,22,22.20
2017,06,26,03,23,22.20
2017,06,26,03,24,22.00
2017,06,26,03,25,21.90
2017,06,26,03,26,21.80
2017,06,26,03,27,21.70
2017,06,26,03,28,21.60
2017,06,26,03,29,21.60
2017,06,26,03,30,21.60
2017,06,26,03,31,21.60
2017,06,26,03,32,21.40
2017,06,26,03,33,21.30
2017,06,26,03,34,21.30
2017,06,26,03,35,21.20
2017,06,26,03,36,21.10
2017,06,26,03,37,21.00
2017,06,26,03,38,20.80
2017,06,26,03,39,20.70
2017,06,26,03,40,20.50
2017,06,26,03,41,20.40
2017,06,26,03,42,20.30
2017,06,26,03,43,20.20
2017,06,26,03,44,20.20
2017,06,26,03,45,20.10
2017,06,26,03,46,20.00
2017,06,26,03,47,19.90
2017,06,26,03,48,19.90
2017,06,26,03,49,19.90
2017,06,26,03,50,19.90
2017,06,26,03,51,19.80
2017,06,26,03,52,19.80
2017,06,26,03,53,19.70
2017,06,26,03,54,19.70
2017,06,26,03,55,19.70
2017,06,26,03,56,19.70
2017,06,26,03,57,19.70
2017,06,26,03,58,19.70
2017,06,26,03,59,19.70
2017,06,26,04,00,19.80
2017,06,26,04,01,19.80
2017,06,26,04,02,19.80
2017,06,26,04,03,19.80
2017,06,26,04,04,19.80
2017,06,26,04,05,19.70
2017,06,26,04,06,19.70
2017,06,26,04,07,19.70
2017,06,26,04,08,19.60
2017,06,26,04,09,19.60
2017,06,26,04,10,19.60
2017,06,26,04,11,19.70
2017,06,26,04,12,19.70
2017,06,26,04,13,19.70
2017,06,26,04,14,19.70
2017,06,26,04,15,19.60
2017,06,26,04,16,19.60
2017,06,26,04,17,19.50
2017,06,26,04,18,19.50
2017,06,26,04,19,19.40
2017,06,26,04,20,19.40
2017,06,26,04,21,19.30
2017,06,26,04,22,19.30
2017,06,26,04,23,19.30
2017,06,26,04,24,19.20
2017,06,26,04,25,19.20
2017,06,26,04,26,19.20
2017,06,26,04,27,19.10
2017,06,26,04,28,19.10
2017,06,26,04,29,19.10
2017,06,26,04,30,19.10
2017,06,26,04,31,19.10
2017,06,26,04,32,19.10
2017,06,26,04,33,19.10
2017,06,26,04,34,19.10
2017,06,26,04,35,19.10
2017,06,26,04,36,19.10
2017,06,26,04,37,19.10
2017,06,26,04,38,19.10
2017,06,26,04,39,19.10
2017,06,26,04,40,19.10
2017,06,26,04,41,19.10
2017,06,26,04,42,19.10
2017,06,26,04,43,19.00
2017,06,26,04,44,18.90
2017,06,26,04,45,18.90
2017,06,26,04,46,18.90
2017,06,26,04,47,18.80
2017,06,26,04,48,18.70
2017,06,26,04,49,18.60
2017,06,26,04,50,18.50
2017,06,26,04,51,18.40
2017,06,26,04,52,18.20
2017,06,26,04,53,18.10
2017,06,26,04,54,17.90
2017,06,26,04,55,17.90
2017,06,26,04,56,17.70
2017,06,26,04,57,17.70
2017,06,26,04,58,17.60
2017,06,26,04,59,17.50
2017,06,26,05,00,17.40
2017,06,26,05,01,17.30
2017,06,26,05,02,17.30
2017,06,26,05,03,17.30
2017,06,26,05,04,17.20
2017,06,26,05,05,17.20
2017,06,26,05,06,17.00
2017,06,26,05,07,17.00
2017,06,26,05,08,16.90
2017,06,26,05,09,16.80
2017,06,26,05,10,16.70
2017,06,26,05,11,16.70
2017,06,26,05,12,16.60
2017,06,26,05,13,16.60
2017,06,26,05,14,16.50
2017,06,26,05,15,16.40
2017,06,26,05,16,16.40
2017,06,26,05,17,16.40
2017,06,26,05,18,16.40
2017,06,26,05,19,16.40
2017,06,26,05,20,16.50
2017,06,26,05,21,16.60
2017,06,26,05,22,16.60
2017,06,26,05,23,16.60
2017,06,26,05,24,16.60
2017,06,26,05,25,16.60
2017,06,26,05,26,16.50
2017,06,26,05,27,16.40
2017,06,26,05,28,16.40
2017,06,26,05,29,16.40
2017,06,26,05,30,16.40
2017,06,26,05,31,16.40
2017,06,26,05,32,16.40
2017,06,26,05,33,16.40
2017,06,26,05,34,16.40
2017,06,26,05,35,16.40
2017,06,26,05,36,16.40
2017,06,26,05,37,16.40
2017,06,26,05,38,16.50
2017,06,26,05,39,16.60
2017,06,26,05,40,16.60
2017,06,26,05,41,16.60
2017,06,26,05,42,16.60
2017,06,26,05,43,16.60
2017,06,26,05,44,16.60
2017,06,26,05,45,16.40
2017,06,26,05,46,16.30
2017,06,26,05,47,16.20
2017,06,26,05,48,16.10
2017,06,26,05,49,16.00
2017,06,26,05,50,15.90
2017,06,26,05,51,15.80
2017,06,26,05,52,15.70
2017,06,26,05,53,15.60
2017,06,26,05,54,15.40
2017,06,26,05,55,15.30
2017,06,26,05,56,15.20
2017,06,26,05,57,15.10
2017,06,26,05,58,15.10
2017,06,26,05,59,15.00
2017,06,26,06,00,14.90
2017,06,26,06,01,14.80
2017,06,26,06,02,14.70
2017,06,26,06,03,14.60
2017,06,26,06,04,14.50
2017,06,26,06,05,14.40
2017,06,26,06,06,14.30
2017,06,26,06,07,14.30
2017,06,26,06,08,14.20
2017,06,26,06,09,14.20
2017,06,26,06,10,14.20
2017,06,26,06,11,14.20
2017,06,26,06,12,14.20
2017,06,26,06,13,14.30
2017,06,26,06,14,14.40
2017,06,26,06,15,14.50
2017,06,26,06,16,14.50
2017,06,26,06,17,14.60
2017,06,26,06,18,14.70
2017,06,26,06,19,14.80
2017,06,26,06,20,14.90
2017,06,26,06,21,15.00
2017,06,26,06,22,15.10
2017,06,26,06,23,15.20
2017,06,26,06,24,15.30
2017,06,26,06,25,15.30
2017,06,26,06,26,15.40
2017,06,26,06,27,15.50
2017,06,26,06,28,15.60
2017,06,26,06,29,15.60
2017,06,26,06,30,15.70
2017,06,26,06,31,15.80
2017,06,26,06,32,15.80
2017,06,26,06,33,15.90
2017,06,26,06,34,16.00
2017,06,26,06,35,16.10
2017,06,26,06,36,16.10
2017,06,26,06,37,16.10
2017,06,26,06,38,16.10
2017,06,26,06,39,16.20
2017,06,26,06,40,16.30
2017,06,26,06,41,16.30
2017,06,26,06,42,16.20
2017,06,26,06,43,16.10
2017,06,26,06,44,16.00
2017,06,26,06,45,15.90
2017,06,26,06,46,15.90
2017,06,26,06,47,15.90
2017,06,26,06,48,15.90
2017,06,26,06,49,15.90
2017,06,26,06,50,15.90
2017,06,26,06,51,15.90
2017,06,26,06,52,16.00
2017,06,26,06,53,16.10
2017,06,26,06,54,16.10
2017,06,26,06,55,16.20
2017,06,26,06,56,16.20
2017,06,26,06,57,16.30
2017,06,26,06,58,16.20
2017,06,26,06,59,16.30
2017,06,26,07,00,16.20
2017,06,26,07,01,16.20
2017,06,26,07,02,16.10
2017,06,26,07,03,16.10
2017,06,26,07,04,16.10
2017,06,26,07,05,16.10
2017,06,26,07,06,16.10
2017,06,26,07,07,16.20
2017,06,26,07,08,16.30
2017,06,26,07,09,16.40
2017,06,26,07,10,16.40
2017,06,26,07,11,16.40
2017,06,26,07,12,16.60
2017,06,26,07,13,16.70
2017,06,26,07,14,16.70
2017,06,26,07,15,16.70
2017,06,26,07,16,16.80
2017,06,26,07,17,16.90
2017,06,26,07,18,16.90
2017,06,26,07,19,16.90
2017,06,26,07,20,16.90
2017,06,26,07,21,17.00
2017,06,26,07,22,17.00
2017,06,26,07,23,17.10
2017,06,26,07,24,17.10
2017,06,26,07,25,17.20
2017,06,26,07,26,17.30
2017,06,26,07,27,17.40
2017,06,26,07,28,17.50
2017,06,26,07,29,17.50
2017,06,26,07,30,17.70
2017,06,26,07,31,17.70
2017,06,26,07,32,17.80
2017,06,26,07,33,17.80
2017,06,26,07,34,17.90
2017,06,26,07,35,17.90
2017,06,26,07,36,18.00
2017,06,26,07,37,18.10
2017,06,26,07,38,18.10
2017,06,26,07,39,18.10
2017,06,26,07,40,18.20
2017,06,26,07,41,18.20
2017,06,26,07,42,18.20
2017,06,26,07,43,18.20
2017,06,26,07,44,18.20
2017,06,26,07,45,18.20
2017,06,26,07,46,18.20
2017,06,26,07,47,18.20
2017,06,26,07,48,18.20
2017,06,26,07,49,18.20
2017,06,26,07,50,18.20
2017,06,26,07,51,18.30
2017,06,26,07,52,18.40
2017,06,26,07,53,18.40
2017,06,26,07,54,18.50
2017,06,26,07,55,18.50
2017,06,26,07,56,18.60
2017,06,26,07,57,18.60
2017,06,26,07,58,18.60
2017,06,26,07,59,18.60
2017,06,26,08,00,18.70
2017,06,26,08,01,18.70
2017,06,26,08,02,18.70
2017,06,26,08,03,18.70
2017,06,26,08,04,18.70
2017,06,26,08,05,18.70
2017,06,26,08,06,18.70
2017,06,26,08,07,18.80
2017,06,26,08,08,18.90
2017,06,26,08,09,18.90
2017,06,26,08,10,19.10
2017,06,26,08,11,19.10
2017,06,26,08,12,19.10
2017,06,26,08,13,19.20
2017,06,26,08,14,19.20
2017,06,26,08,15,19.10
2017,06,26,08,16,19.00
2017,06,26,08,17,18.80
2017,06,26,08,18,18.60
2017,06,26,08,19,18.50
2017,06,26,08,20,18.30
2017,06,26,08,21,18.00
2017,06,26,08,22,17.90
2017,06,26,08,23,17.80
2017,06,26,08,24,17.70
2017,06,26,08,25,17.50
2017,06,26,08,26,17.50
2017,06,26,08,27,17.50
2017,06,26,08,28,17.40
2017,06,26,08,29,17.30
2017,06,26,08,30,17.20
2017,06,26,08,31,17.20
2017,06,26,08,32,17.20
2017,06,26,08,33,17.20
2017,06,26,08,34,17.30
2017,06,26,08,35,17.30
2017,06,26,08,36,17.40
2017,06,26,08,37,17.50
2017,06,26,08,38,17.50
2017,06,26,08,39,17.50
2017,06,26,08,40,17.50
2017,06,26,08,41,17.50
2017,06,26,08,42,17.50
2017,06,26,08,43,17.50
2017,06,26,08,44,17.40
2017,06,26,08,45,17.30
2017,06,26,08,46,17.30
2017,06,26,08,47,17.40
2017,06,26,08,48,17.40
2017,06,26,08,49,17.50
2017,06,26,08,50,17.50
2017,06,26,08,51,17.70
2017,06,26,08,52,17.70
2017,06,26,08,53,17.80
2017,06,26,08,54,17.80
2017,06,26,08,55,17.90
2017,06,26,08,56,17.90
2017,06,26,08,57,17.90
2017,06,26,08,58,17.90
2017,06,26,08,59,17.70
2017,06,26,09,00,17.60
2017,06,26,09,01,17.50
2017,06,26,09,02,17.50
2017,06,26,09,03,17.60
2017,06,26,09,04,17.70
2017,06,26,09,05,17.70
2017,06,26,09,06,17.70
2017,06,26,09,07,17.80
2017,06,26,09,08,17.80
2017,06,26,09,09,17.90
2017,06,26,09,10,17.90
2017,06,26,09,11,18.00
2017,06,26,09,12,18.20
2017,06,26,09,13,18.20
2017,06,26,09,14,18.20
2017,06,26,09,15,18.40
2017,06,26,09,16,18.50
2017,06,26,09,17,18.60
2017,06,26,09,18,18.70
2017,06,26,09,19,18.90
2017,06,26,09,20,18.90
2017,06,26,09,21,19.00
2017,06,26,09,22,19.10
2017,06,26,09,23,19.20
2017,06,26,09,24,19.30
2017,06,26,09,25,19.40
2017,06,26,09,26,19.50
2017,06,26,09,27,19.50
2017,06,26,09,28,19.40
2017,06,26,09,29,19.20
2017,06,26,09,30,19.10
2017,06,26,09,31,19.10
2017,06,26,09,32,19.10
2017,06,26,09,33,19.10
2017,06,26,09,34,19.10
2017,06,26,09,35,19.10
2017,06,26,09,36,19.00
2017,06,26,09,37,18.90
2017,06,26,09,38,18.80
2017,06,26,09,39,18.70
2017,06,26,09,40,18.60
2017,06,26,09,41,18.50
2017,06,26,09,42,18.50
2017,06,26,09,43,18.50
2017,06,26,09,44,18.50
2017,06,26,09,45,18.40
2017,06,26,09,46,18.40
2017,06,26,09,47,18.50
2017,06,26,09,48,18.50
2017,06,26,09,49,18.50
2017,06,26,09,50,18.60
2017,06,26,09,51,18.60
2017,06,26,09,52,18.70
2017,06,26,09,53,18.90
2017,06,26,09,54,18.90
2017,06,26,09,55,18.80
2017,06,26,09,56,18.70
2017,06,26,09,57,18.50
2017,06,26,09,58,18.50
2017,06,26,09,59,18.50
2017,06,26,10,00,18.50
2017,06,26,10,01,18.50
2017,06,26,10,02,18.60
2017,06,26,10,03,18.60
2017,06,26,10,04,18.60
2017,06,26,10,05,18.60
2017,06,26,10,06,18.60
2017,06,26,10,07,18.60
2017,06,26,10,08,18.60
2017,06,26,10,09,18.60
2017,06,26,10,10,18.70
2017,06,26,10,11,18.80
2017,06,26,10,12,18.90
2017,06,26,10,13,18.90
2017,06,26,10,14,18.90
2017,06,26,10,15,18.90
2017,06,26,10,16,18.90
2017,06,26,10,17,18.90
2017,06,26,10,18,18.90
2017,06,26,10,19,18.90
2017,06,26,10,20,18.90
2017,06,26,10,21,18.90
2017,06,26,10,22,18.90
2017,06,26,10,23,19.00
2017,06,26,10,24,19.10
2017,06,26,10,25,19.10
2017,06,26,10,26,19.20
2017,06,26,10,27,19.30
2017,06,26,10,28,19.40
2017,06,26,10,29,19.50
2017,06,26,10,30,19.50
2017,06,26,10,31,19.60
2017,06,26,10,32,19.70
2017,06,26,10,33,19.80
2017,06,26,10,34,19.80
2017,06,26,10,35,19.90
2017,06,26,10,36,19.90
2017,06,26,10,37,19.80
2017,06,26,10,38,19.80
2017,06,26,10,39,19.70
2017,06,26,10,40,19.60
2017,06,26,10,41,19.50
2017,06,26,10,42,19.40
2017,06,26,10,43,19.40
2017,06,26,10,44,19.40
2017,06,26,10,45,19.40
2017,06,26,10,46,19.50
2017,06,26,10,47,19.60
2017,06,26,10,48,19.70
2017,06,26,10,49,19.90
2017,06,26,10,50,19.90
2017,06,26,10,51,20.00
2017,06,26,10,52,20.00
2017,06,26,10,53,19.90
2017,06,26,10,54,19.80
2017,06,26,10,55,19.80
2017,06,26,10,56,19.80
2017,06,26,10,57,19.70
2017,06,26,10,58,19.70
2017,06,26,10,59,19.70
2017,06,26,11,00,19.80
2017,06,26,11,01,19.90
2017,06,26,11,02,19.90
2017,06,26,11,03,19.90
2017,06,26,11,04,19.90
2017,06,26,11,05,19.90
2017,06,26,11,06,19.90
2017,06,26,11,07,19.90
2017,06,26,11,08,19.80
2017,06,26,11,09,19.60
2017,06,26,11,10,19.40
2017,06,26,11,11,19.20
2017,06,26,11,12,19.10
2017,06,26,11,13,19.10
2017,06,26,11,14,19.10
2017,06,26,11,15,19.20
2017,06,26,11,16,19.20
2017,06,26,11,17,19.20
2017,06,26,11,18,19.20
2017,06,26,11,19,19.30
2017,06,26,11,20,19.30
2017,06,26,11,21,19.40
2017,06,26,11,22,19.40
2017,06,26,11,23,19.50
2017,06,26,11,24,19.50
2017,06,26,11,25,19.50
2017,06,26,11,26,19.60
2017,06,26,11,27,19.70
2017,06,26,11,28,19.70
2017,06,26,11,29,19.70
2017,06,26,11,30,19.70
2017,06,26,11,31,19.70
2017,06,26,11,32,19.80
2017,06,26,11,33,19.80
2017,06,26,11,34,19.90
2017,06,26,11,35,19.90
2017,06,26,11,36,19.90
2017,06,26,11,37,19.90
2017,06,26,11,38,19.90
2017,06,26,11,39,19.90
2017,06,26,11,40,19.90
2017,06,26,11,41,19.90
2017,06,26,11,42,20.00
2017,06,26,11,43,20.10
2017,06,26,11,44,20.00
2017,06,26,11,45,19.90
2017,06,26,11,46,19.90
2017,06,26,11,47,19.90
2017,06,26,11,48,19.80
2017,06,26,11,49,19.70
2017,06,26,11,50,19.50
2017,06,26,11,51,19.40
2017,06,26,11,52,19.30
2017,06,26,11,53,19.30
2017,06,26,11,54,19.30
2017,06,26,11,55,19.40
2017,06,26,11,56,19.40
2017,06,26,11,57,19.50
2017,06,26,11,58,19.60
2017,06,26,11,59,19.70
2017,06,26,12,00,19.70
2017,06,26,12,01,19.60
2017,06,26,12,02,19.50
2017,06,26,12,03,19.30
2017,06,26,12,04,19.20
2017,06,26,12,05,19.10
2017,06,26,12,06,19.30
2017,06,26,12,07,19.30
2017,06,26,12,08,19.40
2017,06,26,12,09,19.40
2017,06,26,12,10,19.50
2017,06,26,12,11,19.60
2017,06,26,12,12,19.60
2017,06,26,12,13,19.60
2017,06,26,12,14,19.70
2017,06,26,12,15,19.80
2017,06,26,12,16,19.80
2017,06,26,12,17,19.70
2017,06,26,12,18,19.70
2017,06,26,12,19,19.80
2017,06,26,12,20,19.70
2017,06,26,12,21,19.60
2017,06,26,12,22,19.60
2017,06,26,12,23,19.70
2017,06,26,12,24,19.60
2017,06,26,12,25,19.50
2017,06,26,12,26,19.40
2017,06,26,12,27,19.30
2017,06,26,12,28,19.20
2017,06,26,12,29,19.10
2017,06,26,12,30,19.10
2017,06,26,12,31,19.20
2017,06,26,12,32,19.40
2017,06,26,12,33,19.50
2017,06,26,12,34,19.60
2017,06,26,12,35,19.60
2017,06,26,12,36,19.50
2017,06,26,12,37,19.40
2017,06,26,12,38,19.30
2017,06,26,12,39,19.20
2017,06,26,12,40,19.10
2017,06,26,12,41,19.10
2017,06,26,12,42,19.10
2017,06,26,12,43,19.10
2017,06,26,12,44,19.00
2017,06,26,12,45,19.10
2017,06,26,12,46,19.10
2017,06,26,12,47,19.10
2017,06,26,12,48,19.10
2017,06,26,12,49,19.10
2017,06,26,12,50,19.20
2017,06,26,12,51,19.30
2017,06,26,12,52,19.40
2017,06,26,12,53,19.50
2017,06,26,12,54,19.70
2017,06,26,12,55,19.80
2017,06,26,12,56,19.70
2017,06,26,12,57,19.70
2017,06,26,12,58,19.80
2017,06,26,12,59,19.80
2017,06,26,13,00,19.80
2017,06,26,13,01,19.80
2017,06,26,13,02,20.00
2017,06,26,13,03,20.10
2017,06,26,13,04,20.10
2017,06,26,13,05,20.00
2017,06,26,13,06,19.90
2017,06,26,13,07,19.50
2017,06,26,13,08,19.00
2017,06,26,13,09,18.70
2017,06,26,13,10,18.50
2017,06,26,13,11,18.40
2017,06,26,13,12,18.20
2017,06,26,13,13,18.10
2017,06,26,13,14,18.00
2017,06,26,13,15,17.90
2017,06,26,13,16,17.70
2017,06,26,13,17,17.70
2017,06,26,13,18,17.70
2017,06,26,13,19,17.80
2017,06,26,13,20,17.80
2017,06,26,13,21,17.90
2017,06,26,13,22,18.00
2017,06,26,13,23,18.10
2017,06,26,13,24,18.10
2017,06,26,13,25,18.00
2017,06,26,13,26,17.90
2017,06,26,13,27,17.90
2017,06,26,13,28,18.00
2017,06,26,13,29,18.10
2017,06,26,13,30,18.10
2017,06,26,13,31,18.20
2017,06,26,13,32,18.20
2017,06,26,13,33,18.10
2017,06,26,13,34,17.90
2017,06,26,13,35,17.60
2017,06,26,13,36,17.40
2017,06,26,13,37,17.10
2017,06,26,13,38,17.00
2017,06,26,13,39,17.00
2017,06,26,13,40,16.90
2017,06,26,13,41,16.90
2017,06,26,13,42,16.80
2017,06,26,13,43,16.80
2017,06,26,13,44,16.90
2017,06,26,13,45,16.90
2017,06,26,13,46,16.90
2017,06,26,13,47,16.90
2017,06,26,13,48,17.00
2017,06,26,13,49,17.10
2017,06,26,13,50,17.20
2017,06,26,13,51,17.10
2017,06,26,13,52,17.20
2017,06,26,13,53,17.30
2017,06,26,13,54,17.40
2017,06,26,13,55,17.50
2017,06,26,13,56,17.50
2017,06,26,13,57,17.50
2017,06,26,13,58,17.60
2017,06,26,13,59,17.60
2017,06,26,14,00,17.50
2017,06,26,14,01,17.40
2017,06,26,14,02,17.50
2017,06,26,14,03,17.40
2017,06,26,14,04,17.40
2017,06,26,14,05,17.30
2017,06,26,14,06,17.30
2017,06,26,14,07,17.30
2017,06,26,14,08,17.30
2017,06,26,14,09,17.30
2017,06,26,14,10,17.30
2017,06,26,14,11,17.30
2017,06,26,14,12,17.40
2017,06,26,14,13,17.50
2017,06,26,14,14,17.80
2017,06,26,14,15,18.00
2017,06,26,14,16,18.20
2017,06,26,14,17,18.40
2017,06,26,14,18,18.40
2017,06,26,14,19,18.50
2017,06,26,14,20,18.50
2017,06,26,14,21,18.60
2017,06,26,14,22,18.70
2017,06,26,14,23,18.90
2017,06,26,14,24,19.10
2017,06,26,14,25,19.30
2017,06,26,14,26,19.40
2017,06,26,14,27,19.60
2017,06,26,14,28,19.70
2017,06,26,14,29,19.70
2017,06,26,14,30,19.80
2017,06,26,14,31,19.90
2017,06,26,14,32,20.10
2017,06,26,14,33,20.20
2017,06,26,14,34,20.20
2017,06,26,14,35,20.40
2017,06,26,14,36,20.40
2017,06,26,14,37,20.50
2017,06,26,14,38,20.50
2017,06,26,14,39,20.50
2017,06,26,14,40,20.60
2017,06,26,14,41,20.60
2017,06,26,14,42,20.60
2017,06,26,14,43,20.70
2017,06,26,14,44,20.90
2017,06,26,14,45,21.00
2017,06,26,14,46,21.20
2017,06,26,14,47,21.20
2017,06,26,14,48,21.10
2017,06,26,14,49,20.90
2017,06,26,14,50,20.80
2017,06,26,14,51,20.70
2017,06,26,14,52,20.40
2017,06,26,14,53,20.20
2017,06,26,14,54,20.10
2017,06,26,14,55,20.00
2017,06,26,14,56,19.90
2017,06,26,14,57,19.90
2017,06,26,14,58,19.90
2017,06,26,14,59,19.90
2017,06,26,15,00,20.00
2017,06,26,15,01,20.20
2017,06,26,15,02,20.30
2017,06,26,15,03,20.50
2017,06,26,15,04,20.70
2017,06,26,15,05,20.90
2017,06,26,15,06,21.20
2017,06,26,15,07,21.40
2017,06,26,15,08,21.60
2017,06,26,15,09,21.60
2017,06,26,15,10,21.60
2017,06,26,15,11,21.60
2017,06,26,15,12,21.60
2017,06,26,15,13,21.60
2017,06,26,15,14,21.70
2017,06,26,15,15,21.70
2017,06,26,15,16,21.50
2017,06,26,15,17,21.30
2017,06,26,15,18,21.10
2017,06,26,15,19,21.00
2017,06,26,15,20,20.90
2017,06,26,15,21,20.80
2017,06,26,15,22,20.70
2017,06,26,15,23,20.60
2017,06,26,15,24,20.40
2017,06,26,15,25,20.30
2017,06,26,15,26,20.20
2017,06,26,15,27,20.30
2017,06,26,15,28,20.40
2017,06,26,15,29,20.50
2017,06,26,15,30,20.60
2017,06,26,15,31,20.70
2017,06,26,15,32,20.70
2017,06,26,15,33,20.70
2017,06,26,15,34,20.60
2017,06,26,15,35,20.60
2017,06,26,15,36,20.40
2017,06,26,15,37,20.30
2017,06,26,15,38,20.20
2017,06,26,15,39,20.00
2017,06,26,15,40,19.90
2017,06,26,15,41,19.90
2017,06,26,15,42,19.90
2017,06,26,15,43,19.90
2017,06,26,15,44,19.90
2017,06,26,15,45,19.90
2017,06,26,15,46,19.90
2017,06,26,15,47,19.90
2017,06,26,15,48,19.90
2017,06,26,15,49,19.90
2017,06,26,15,50,20.00
2017,06,26,15,51,20.10
2017,06,26,15,52,20.20
2017,06,26,15,53,20.40
2017,06,26,15,54,20.50
2017,06,26,15,55,20.60
2017,06,26,15,56,20.70
2017,06,26,15,57,20.80
2017,06,26,15,58,20.80
2017,06,26,15,59,20.80
2017,06,26,16,00,20.80
2017,06,26,16,01,20.90
2017,06,26,16,02,20.90
2017,06,26,16,03,20.90
2017,06,26,16,04,21.00
2017,06,26,16,05,21.10
2017,06,26,16,06,21.10
2017,06,26,16,07,21.10
2017,06,26,16,08,21.10
2017,06,26,16,09,21.00
2017,06,26,16,10,21.00
2017,06,26,16,11,21.00
2017,06,26,16,12,21.00
2017,06,26,16,13,21.00
2017,06,26,16,14,21.00
2017,06,26,16,15,21.10
2017,06,26,16,16,21.10
2017,06,26,16,17,21.20
2017,06,26,16,18,21.10
2017,06,26,16,19,21.10
2017,06,26,16,20,21.10
2017,06,26,16,21,21.10
2017,06,26,16,22,21.20
2017,06,26,16,23,21.20
2017,06,26,16,24,21.20
2017,06,26,16,25,21.20
2017,06,26,16,26,21.20
2017,06,26,16,27,21.20
2017,06,26,16,28,21.10
2017,06,26,16,29,21.20
2017,06,26,16,30,21.10
2017,06,26,16,31,21.10
2017,06,26,16,32,21.00
2017,06,26,16,33,21.00
2017,06,26,16,34,21.00
2017,06,26,16,35,20.90
2017,06,26,16,36,20.90
2017,06,26,16,37,21.00
2017,06,26,16,38,21.00
2017,06,26,16,39,21.10
2017,06,26,16,40,21.20
2017,06,26,16,41,21.30
2017,06,26,16,42,21.30
2017,06,26,16,43,21.30
2017,06,26,16,44,21.30
2017,06,26,16,45,21.50
2017,06,26,16,46,21.60
2017,06,26,16,47,21.60
2017,06,26,16,48,21.60
2017,06,26,16,49,21.60
2017,06,26,16,50,21.60
2017,06,26,16,51,21.50
2017,06,26,16,52,21.40
2017,06,26,16,53,21.30
2017,06,26,16,54,21.10
2017,06,26,16,55,21.00
2017,06,26,16,56,20.80
2017,06,26,16,57,20.60
2017,06,26,16,58,20.50
2017,06,26,16,59,20.50
2017,06,26,17,00,20.50
2017,06,26,17,01,20.50
2017,06,26,17,02,20.50
2017,06,26,17,03,20.50
2017,06,26,17,04,20.50
2017,06,26,17,05,20.50
2017,06,26,17,06,20.50
2017,06,26,17,07,20.60
2017,06,26,17,08,20.60
2017,06,26,17,09,20.60
2017,06,26,17,10,20.60
2017,06,26,17,11,20.60
2017,06,26,17,12,20.50
2017,06,26,17,13,20.50
2017,06,26,17,14,20.50
2017,06,26,17,15,20.50
2017,06,26,17,16,20.60
2017,06,26,17,17,20.60
2017,06,26,17,18,20.70
2017,06,26,17,19,20.80